ANA57 RJTT-RJCC

Flight info

Callsign ANA57
Flight time 1h 5m
Altitude 39000
Route BRUCE AGRIS Y11 SAMBO Y119 OHMAR Y13 SIRAO Y139 NAVER
Aircraft B772/H-SDE2E3FGHIJ5LORVWXY/LB1D1

Departure

Time 2026-05-08 00:58
Airport Tokyo Haneda International Airport (RJTT)

Arrival

Time 2026-05-08 02:04
Airport New Chitose Airport (RJCC)
Time Latitude Longitude Altitude Speed Heading
2026-05-08 00:31 35.55004 139.79078 27 ft 0 kts 242°
2026-05-08 00:48 35.55011 139.79097 41 ft 4 kts 251°
2026-05-08 00:49 35.55019 139.79121 39 ft 2 kts 239°
2026-05-08 00:49 35.55033 139.79148 22 ft 4 kts 249°
2026-05-08 00:49 35.55034 139.79169 27 ft 4 kts 283°
2026-05-08 00:49 35.55033 139.79175 24 ft 0 kts 279°
2026-05-08 00:51 35.55046 139.79146 25 ft 7 kts 315°
2026-05-08 00:52 35.55087 139.79114 28 ft 7 kts 328°
2026-05-08 00:52 35.55133 139.79080 28 ft 9 kts 329°
2026-05-08 00:52 35.55187 139.79042 28 ft 9 kts 330°
2026-05-08 00:52 35.55253 139.78997 28 ft 14 kts 330°
2026-05-08 00:53 35.55327 139.78946 28 ft 11 kts 331°
2026-05-08 00:53 35.55403 139.78948 28 ft 11 kts 32°
2026-05-08 00:53 35.55449 139.79026 28 ft 11 kts 45°
2026-05-08 00:53 35.55525 139.79027 28 ft 14 kts 335°
2026-05-08 00:54 35.55617 139.78962 28 ft 15 kts 329°
2026-05-08 00:54 35.55708 139.78898 28 ft 15 kts 330°
2026-05-08 00:54 35.55798 139.78833 28 ft 15 kts 329°
2026-05-08 00:54 35.55889 139.78769 28 ft 15 kts 330°
2026-05-08 00:55 35.55980 139.78704 28 ft 15 kts 330°
2026-05-08 00:55 35.56071 139.78639 28 ft 15 kts 329°
2026-05-08 00:55 35.56161 139.78574 28 ft 15 kts 330°
2026-05-08 00:55 35.56253 139.78509 28 ft 15 kts 330°
2026-05-08 00:56 35.56332 139.78456 28 ft 9 kts 338°
2026-05-08 00:56 35.56385 139.78480 27 ft 9 kts 51°
2026-05-08 00:56 35.56420 139.78542 27 ft 9 kts 59°
2026-05-08 00:56 35.56450 139.78608 27 ft 9 kts 61°
2026-05-08 00:57 35.56480 139.78674 27 ft 9 kts 61°
2026-05-08 00:57 35.56476 139.78738 28 ft 8 kts 144°
2026-05-08 00:57 35.56340 139.78835 28 ft 52 kts 150°
2026-05-08 00:57 35.55777 139.79234 30 ft 133 kts 149°
2026-05-08 00:58 35.54877 139.79894 553 ft 157 kts 152°
2026-05-08 00:58 35.53925 139.80574 1466 ft 164 kts 155°
2026-05-08 00:58 35.52956 139.81362 2181 ft 175 kts 140°
2026-05-08 00:58 35.52059 139.82535 2431 ft 202 kts 135°
2026-05-08 00:59 35.51040 139.83873 2651 ft 229 kts 136°
2026-05-08 00:59 35.49879 139.85379 2874 ft 255 kts 137°
2026-05-08 00:59 35.48622 139.86992 3480 ft 266 kts 137°
2026-05-08 00:59 35.47323 139.88647 4225 ft 271 kts 137°
2026-05-08 01:00 35.46070 139.90388 4896 ft 277 kts 126°
2026-05-08 01:00 35.45469 139.92683 5491 ft 293 kts 93°
2026-05-08 01:00 35.45928 139.95131 6247 ft 300 kts 60°
2026-05-08 01:00 35.47231 139.97119 6853 ft 302 kts 45°
2026-05-08 01:01 35.48847 139.98756 7302 ft 306 kts 22°
2026-05-08 01:01 35.50891 139.99270 7997 ft 299 kts 351°
2026-05-08 01:01 35.52903 139.98802 8774 ft 293 kts 339°
2026-05-08 01:01 35.54892 139.98117 9493 ft 299 kts 338°
2026-05-08 01:02 35.56915 139.97408 10252 ft 304 kts 337°
2026-05-08 01:02 35.59013 139.96672 10690 ft 324 kts 338°
2026-05-08 01:02 35.61244 139.95989 11296 ft 337 kts 346°
2026-05-08 01:02 35.63660 139.95956 11995 ft 356 kts 359°
2026-05-08 01:03 35.66150 139.96230 12960 ft 362 kts 360°
2026-05-08 01:03 35.68675 139.96488 13901 ft 367 kts 358°
2026-05-08 01:03 35.71248 139.96690 14633 ft 375 kts 357°
2026-05-08 01:03 35.73840 139.96715 14806 ft 370 kts 345°
2026-05-08 01:04 35.76239 139.95797 14822 ft 358 kts 329°
2026-05-08 01:04 35.78546 139.94606 14838 ft 360 kts 330°
2026-05-08 01:04 35.80868 139.93483 14839 ft 360 kts 333°
2026-05-08 01:04 35.83358 139.92733 15396 ft 376 kts 344°
2026-05-08 01:05 35.85960 139.92422 16315 ft 384 kts 351°
2026-05-08 01:05 35.88695 139.92484 17184 ft 393 kts 356°
2026-05-08 01:05 35.91461 139.92693 17953 ft 402 kts 357°
2026-05-08 01:05 35.94241 139.92926 18646 ft 409 kts 357°
2026-05-08 01:06 35.97105 139.93166 19406 ft 414 kts 357°
2026-05-08 01:06 35.99986 139.93400 20201 ft 416 kts 357°
2026-05-08 01:06 36.02887 139.93626 20976 ft 420 kts 357°
2026-05-08 01:06 36.05822 139.93847 21721 ft 425 kts 357°
2026-05-08 01:07 36.08797 139.94067 22441 ft 430 kts 357°
2026-05-08 01:07 36.11808 139.94289 23220 ft 435 kts 358°
2026-05-08 01:07 36.14850 139.94515 23857 ft 441 kts 358°
2026-05-08 01:07 36.17929 139.94743 24530 ft 444 kts 358°
2026-05-08 01:08 36.21019 139.94911 25273 ft 443 kts 354°
2026-05-08 01:08 36.24094 139.94857 26008 ft 443 kts 352°
2026-05-08 01:08 36.27177 139.94751 26704 ft 445 kts 352°
2026-05-08 01:08 36.30289 139.94638 27376 ft 448 kts 352°
2026-05-08 01:09 36.33425 139.94535 28052 ft 452 kts 351°
2026-05-08 01:09 36.36540 139.94445 28688 ft 455 kts 351°
2026-05-08 01:09 36.39726 139.94360 29329 ft 458 kts 351°
2026-05-08 01:09 36.42924 139.94304 29942 ft 463 kts 353°
2026-05-08 01:10 36.46162 139.94387 30425 ft 468 kts 354°
2026-05-08 01:10 36.49434 139.94530 30873 ft 472 kts 355°
2026-05-08 01:10 36.52735 139.94692 31282 ft 478 kts 355°
2026-05-08 01:10 36.56086 139.94855 31656 ft 483 kts 355°
2026-05-08 01:11 36.59462 139.95012 32080 ft 486 kts 355°
2026-05-08 01:11 36.62851 139.95162 32533 ft 489 kts 355°
2026-05-08 01:11 36.66258 139.95307 32972 ft 492 kts 355°
2026-05-08 01:11 36.69686 139.95450 33400 ft 495 kts 355°
2026-05-08 01:12 36.73153 139.95594 33722 ft 500 kts 355°
2026-05-08 01:12 36.76653 139.95740 34016 ft 505 kts 355°
2026-05-08 01:12 36.80175 139.95889 34357 ft 507 kts 355°
2026-05-08 01:12 36.83720 139.96039 34713 ft 509 kts 355°
2026-05-08 01:13 36.87279 139.96275 35042 ft 515 kts 359°
2026-05-08 01:13 36.90852 139.96901 35320 ft 524 kts
2026-05-08 01:13 36.94433 139.97854 35532 ft 529 kts
2026-05-08 01:13 36.98021 139.98872 35885 ft 529 kts
2026-05-08 01:14 37.01605 139.99848 36327 ft 526 kts
2026-05-08 01:14 37.05200 140.00780 36757 ft 525 kts
2026-05-08 01:14 37.08730 140.01683 37141 ft 524 kts
2026-05-08 01:14 37.12301 140.02596 37520 ft 525 kts
2026-05-08 01:15 37.15874 140.03514 37871 ft 524 kts
2026-05-08 01:15 37.19452 140.04436 38236 ft 524 kts
2026-05-08 01:15 37.23020 140.05358 38566 ft 523 kts
2026-05-08 01:15 37.26595 140.06282 38760 ft 525 kts
2026-05-08 01:16 37.30177 140.07208 38807 ft 526 kts
2026-05-08 01:16 37.37340 140.09070 38804 ft 522 kts
2026-05-08 01:17 37.44449 140.10920 38819 ft 521 kts
2026-05-08 01:17 37.51544 140.12767 38840 ft 520 kts
2026-05-08 01:18 37.58635 140.14609 38821 ft 521 kts
2026-05-08 01:18 37.65753 140.16457 38818 ft 523 kts
2026-05-08 01:19 37.72840 140.18314 38826 ft 524 kts
2026-05-08 01:19 37.79991 140.20193 38815 ft 525 kts
2026-05-08 01:20 37.87140 140.22075 38829 ft 525 kts
2026-05-08 01:20 37.94298 140.23960 38845 ft 525 kts
2026-05-08 01:21 38.01463 140.25851 38819 ft 526 kts
2026-05-08 01:21 38.08630 140.27748 38812 ft 526 kts
2026-05-08 01:22 38.15791 140.29647 38825 ft 525 kts
2026-05-08 01:22 38.22961 140.31552 38805 ft 525 kts
2026-05-08 01:23 38.30131 140.33460 38803 ft 525 kts
2026-05-08 01:23 38.37291 140.35369 38822 ft 526 kts
2026-05-08 01:24 38.44403 140.37422 38801 ft 529 kts
2026-05-08 01:24 38.51544 140.39778 38805 ft 530 kts
2026-05-08 01:25 38.58692 140.42141 38821 ft 530 kts
2026-05-08 01:25 38.65565 140.44368 38818 ft 531 kts
2026-05-08 01:26 38.72733 140.46675 38828 ft 531 kts
2026-05-08 01:26 38.79892 140.48985 38858 ft 530 kts
2026-05-08 01:27 38.87065 140.51309 38833 ft 531 kts
2026-05-08 01:27 38.94192 140.53622 38826 ft 532 kts
2026-05-08 01:28 39.01369 140.55958 38857 ft 532 kts
2026-05-08 01:28 39.08547 140.58303 38832 ft 532 kts
2026-05-08 01:29 39.15735 140.60659 38826 ft 533 kts
2026-05-08 01:29 39.22932 140.63026 38823 ft 533 kts
2026-05-08 01:30 39.30138 140.65400 38827 ft 535 kts
2026-05-08 01:30 39.37354 140.67779 38837 ft 536 kts
2026-05-08 01:31 39.44584 140.70173 38820 ft 536 kts
2026-05-08 01:31 39.51834 140.72572 38835 ft 538 kts
2026-05-08 01:32 39.59098 140.74974 38833 ft 540 kts
2026-05-08 01:32 39.66343 140.77380 38829 ft 540 kts
2026-05-08 01:33 39.73618 140.79803 38843 ft 540 kts
2026-05-08 01:33 39.80911 140.82234 38819 ft 541 kts
2026-05-08 01:34 39.88204 140.84672 38826 ft 541 kts
2026-05-08 01:34 39.94255 140.86706 38812 ft 540 kts
2026-05-08 01:34 39.97899 140.87936 38496 ft 537 kts
2026-05-08 01:35 40.01499 140.89153 38046 ft 532 kts
2026-05-08 01:35 40.05060 140.90356 37657 ft 526 kts
2026-05-08 01:35 40.08589 140.91548 37286 ft 520 kts
2026-05-08 01:35 40.12074 140.92725 36917 ft 515 kts
2026-05-08 01:36 40.15530 140.93888 36544 ft 508 kts
2026-05-08 01:36 40.18963 140.94784 36208 ft 499 kts
2026-05-08 01:36 40.22375 140.95256 35821 ft 488 kts 354°
2026-05-08 01:36 40.25740 140.95370 35467 ft 482 kts 352°
2026-05-08 01:37 40.29086 140.95445 35066 ft 479 kts 352°
2026-05-08 01:37 40.32406 140.95517 34689 ft 476 kts 352°
2026-05-08 01:37 40.35717 140.95602 34303 ft 474 kts 353°
2026-05-08 01:37 40.39005 140.95699 33955 ft 472 kts 353°
2026-05-08 01:38 40.42292 140.95806 33502 ft 471 kts 353°
2026-05-08 01:38 40.45567 140.95918 33105 ft 469 kts 353°
2026-05-08 01:38 40.48816 140.96032 32708 ft 466 kts 353°
2026-05-08 01:38 40.52049 140.96145 32329 ft 464 kts 353°
2026-05-08 01:39 40.55262 140.96258 31954 ft 461 kts 353°
2026-05-08 01:39 40.58466 140.96370 31590 ft 459 kts 353°
2026-05-08 01:39 40.61649 140.96480 31153 ft 459 kts 352°
2026-05-08 01:39 40.64884 140.96583 30465 ft 472 kts 353°
2026-05-08 01:40 40.68215 140.96688 29821 ft 485 kts 353°
2026-05-08 01:40 40.71605 140.96808 29369 ft 490 kts 353°
2026-05-08 01:40 40.74988 140.96931 28939 ft 493 kts 353°
2026-05-08 01:40 40.78425 140.97052 28593 ft 493 kts 353°
2026-05-08 01:41 40.81845 140.97168 28379 ft 491 kts 353°
2026-05-08 01:41 40.85253 140.97281 28109 ft 490 kts 353°
2026-05-08 01:41 40.88657 140.97394 27873 ft 488 kts 353°
2026-05-08 01:41 40.92048 140.97506 27636 ft 486 kts 353°
2026-05-08 01:42 40.95415 140.97618 27402 ft 483 kts 353°
2026-05-08 01:42 40.98775 140.97731 27187 ft 481 kts 353°
2026-05-08 01:42 41.02112 140.97842 26996 ft 479 kts 353°
2026-05-08 01:42 41.05448 140.97951 26745 ft 478 kts 353°
2026-05-08 01:43 41.08768 140.98061 26505 ft 477 kts 353°
2026-05-08 01:43 41.12075 140.98172 26101 ft 474 kts 353°
2026-05-08 01:43 41.15370 140.98282 25584 ft 472 kts 353°
2026-05-08 01:43 41.18637 140.98391 25075 ft 468 kts 353°
2026-05-08 01:44 41.21885 140.98500 24561 ft 465 kts 353°
2026-05-08 01:44 41.25112 140.98609 24079 ft 463 kts 353°
2026-05-08 01:44 41.28342 140.98823 23538 ft 467 kts 358°
2026-05-08 01:44 41.31564 140.99492 22948 ft 471 kts
2026-05-08 01:45 41.34745 141.00572 22407 ft 473 kts 12°
2026-05-08 01:45 41.37835 141.02069 21893 ft 471 kts 15°
2026-05-08 01:45 41.40880 141.03645 21408 ft 466 kts 16°
2026-05-08 01:45 41.43893 141.05170 20932 ft 461 kts 15°
2026-05-08 01:46 41.46892 141.06651 20459 ft 456 kts 15°
2026-05-08 01:46 41.49861 141.08111 20017 ft 452 kts 15°
2026-05-08 01:46 41.52756 141.09540 19559 ft 447 kts 16°
2026-05-08 01:46 41.55655 141.10974 19099 ft 443 kts 16°
2026-05-08 01:47 41.58533 141.12400 18666 ft 438 kts 16°
2026-05-08 01:47 41.61377 141.13811 18218 ft 434 kts 16°
2026-05-08 01:47 41.64236 141.15230 17733 ft 431 kts 16°
2026-05-08 01:48 41.69760 141.17981 16834 ft 423 kts 16°
2026-05-08 01:48 41.72504 141.19362 16402 ft 419 kts 15°
2026-05-08 01:48 41.75223 141.20735 15991 ft 415 kts 15°
2026-05-08 01:48 41.77915 141.22096 15565 ft 412 kts 15°
2026-05-08 01:49 41.80602 141.23454 15125 ft 410 kts 15°
2026-05-08 01:49 41.83270 141.24803 14694 ft 408 kts 14°
2026-05-08 01:49 41.85919 141.26142 14245 ft 406 kts 14°
2026-05-08 01:49 41.88561 141.27480 13821 ft 404 kts 14°
2026-05-08 01:50 41.91182 141.28815 13343 ft 403 kts 14°
2026-05-08 01:50 41.93797 141.30159 12907 ft 397 kts 15°
2026-05-08 01:50 41.96272 141.31784 12575 ft 397 kts 26°
2026-05-08 01:50 41.98523 141.33947 12145 ft 398 kts 37°
2026-05-08 01:51 42.00527 141.36512 11708 ft 397 kts 43°
2026-05-08 01:51 42.02462 141.39067 11259 ft 384 kts 42°
2026-05-08 01:51 42.04350 141.41512 10826 ft 371 kts 42°
2026-05-08 01:51 42.06215 141.43909 10458 ft 369 kts 42°
2026-05-08 01:52 42.08024 141.46230 10303 ft 359 kts 43°
2026-05-08 01:52 42.09807 141.48519 10146 ft 350 kts 43°
2026-05-08 01:52 42.11546 141.50754 9987 ft 341 kts 43°
2026-05-08 01:52 42.13314 141.52785 9662 ft 327 kts 28°
2026-05-08 01:53 42.15344 141.53984 9349 ft 313 kts 16°
2026-05-08 01:53 42.17372 141.55032 9041 ft 312 kts 17°
2026-05-08 01:53 42.18733 141.55757 8829 ft 311 kts 17°
2026-05-08 01:53 42.19947 141.56411 8639 ft 310 kts 18°
2026-05-08 01:54 42.21944 141.57495 8342 ft 308 kts 18°
2026-05-08 01:54 42.23923 141.58575 8053 ft 306 kts 18°
2026-05-08 01:54 42.25894 141.59655 7744 ft 304 kts 19°
2026-05-08 01:54 42.27847 141.60729 7452 ft 302 kts 19°
2026-05-08 01:55 42.29793 141.61802 7148 ft 301 kts 19°
2026-05-08 01:55 42.31723 141.62867 6856 ft 299 kts 19°
2026-05-08 01:55 42.33640 141.63926 6568 ft 297 kts 19°
2026-05-08 01:55 42.35548 141.64982 6281 ft 295 kts 20°
2026-05-08 01:56 42.37442 141.66030 5979 ft 293 kts 20°
2026-05-08 01:56 42.39318 141.67069 5686 ft 291 kts 20°
2026-05-08 01:56 42.41184 141.68103 5382 ft 288 kts 20°
2026-05-08 01:56 42.43030 141.69128 5106 ft 286 kts 21°
2026-05-08 01:57 42.44858 141.70142 4839 ft 283 kts 21°
2026-05-08 01:57 42.46654 141.71139 4568 ft 280 kts 21°
2026-05-08 01:57 42.48467 141.72148 4267 ft 274 kts 21°
2026-05-08 01:57 42.50153 141.73088 4081 ft 256 kts 21°
2026-05-08 01:58 42.51795 141.73729 3952 ft 238 kts
2026-05-08 01:58 42.53390 141.73595 3870 ft 223 kts 351°
2026-05-08 01:58 42.54919 141.73368 3776 ft 213 kts 351°
2026-05-08 01:58 42.56335 141.73134 3681 ft 202 kts 350°
2026-05-08 01:59 42.57693 141.72899 3575 ft 193 kts 349°
2026-05-08 01:59 42.59014 141.72667 3370 ft 190 kts 349°
2026-05-08 01:59 42.60308 141.72439 3172 ft 185 kts 349°
2026-05-08 01:59 42.61571 141.72217 2966 ft 181 kts 349°
2026-05-08 02:00 42.62798 141.72001 2775 ft 171 kts 350°
2026-05-08 02:00 42.63945 141.71800 2507 ft 163 kts 350°
2026-05-08 02:00 42.65058 141.71603 2278 ft 160 kts 351°
2026-05-08 02:00 42.66174 141.71408 2090 ft 163 kts 351°
2026-05-08 02:01 42.67307 141.71209 1871 ft 164 kts 352°
2026-05-08 02:01 42.68432 141.71011 1646 ft 162 kts 352°
2026-05-08 02:01 42.69535 141.70818 1424 ft 156 kts 352°
2026-05-08 02:01 42.70566 141.70637 1223 ft 146 kts 352°
2026-05-08 02:02 42.71582 141.70457 1022 ft 147 kts 352°
2026-05-08 02:02 42.72576 141.70282 809 ft 140 kts 353°
2026-05-08 02:02 42.73527 141.70115 634 ft 136 kts 353°
2026-05-08 02:02 42.74455 141.69951 459 ft 134 kts 353°
2026-05-08 02:03 42.75371 141.69787 279 ft 130 kts 353°
2026-05-08 02:03 42.76281 141.69628 116 ft 133 kts 353°
2026-05-08 02:03 42.77157 141.69477 70 ft 117 kts 352°
2026-05-08 02:03 42.77815 141.69363 64 ft 73 kts 352°
2026-05-08 02:04 42.78164 141.69298 67 ft 24 kts 348°
2026-05-08 02:04 42.78301 141.69197 63 ft 22 kts 324°
2026-05-08 02:04 42.78394 141.69101 63 ft 15 kts 323°
2026-05-08 02:04 42.78444 141.69009 68 ft 13 kts 276°
2026-05-08 02:05 42.78434 141.68862 63 ft 16 kts 264°
2026-05-08 02:05 42.78422 141.68708 68 ft 16 kts 263°
2026-05-08 02:05 42.78411 141.68602 66 ft 10 kts 263°
2026-05-08 02:05 42.78418 141.68511 68 ft 10 kts 285°
2026-05-08 02:06 42.78449 141.68430 65 ft 10 kts 304°
2026-05-08 02:06 42.78491 141.68360 62 ft 10 kts 330°
2026-05-08 02:06 42.78555 141.68358 63 ft 7 kts
2026-05-08 02:06 42.78588 141.68322 65 ft 6 kts 302°
2026-05-08 02:07 42.78603 141.68282 69 ft 3 kts 295°
2026-05-08 02:07 42.78610 141.68261 65 ft 1 kts 295°
2026-05-08 02:07 42.78614 141.68249 67 ft 1 kts 295°
2026-05-08 02:07 42.78615 141.68247 67 ft 0 kts 295°